Location: Le Rocchette
(44.3500°N, 7.8333°E)
Time: 05:26:42
(UTC+00:00)

Cosmos 2082 Rocket - Pass Details

Date: 17 November 2019
Orbit: 833 x 854 km, 71.0° (Epoch: 05 December)

Event Time Altitude Azimuth Distance (km) Brightness Sun altitude
Exits shadow 04:25:31 34° 319° (NW) 1,379 2.9 -21.5°
Drops below altitude 10° 04:30:06 10° 11° (N) 2,490 4.7 -20.7°
Sets 04:32:47 0° 20° (NNE) 3,427 5.5 -20.2°
